Temp
13 14 14 14 14 14 14 14 13 14 14 16 15 16 15 15 15 14 14 14 13 13 12 12 12 12 12 11 11 11 10 10 10 9 8 7 7 7
13 14 14 14 14 13 13 13 13 13 13 13 14 14 14 14 13 13 13 13 13 12 11 11 11 12 11 11 11 11 10 9 10 8 7 6 6 6
13 13 13 13 12 12 12 12 12 12 12 12 12 12 12 12 12 12 12 12 12 11 10 11 11 11 10 10 10 10 9 9 8 6 6 6 6 6
9 10 9 10 10 9 10 10 9 9 9 10 10 10 10 10 10 10 10 10 10 10 10 10 10 10 9 9 9 9 9 8 7 7 7 6 5 5
8 8 7 8 8 8 8 8 8 8 8 8 9 9 8 9 8 8 9 9 9 9 9 8 8 9 8 8 8 8 8 7 7 7 7 6 5 4
7 7 7 6 6 6 6 6 7 7 7 7 8 7 7 7 7 6 6 7 7 7 7 8 7 8 8 8 7 7 6 6 6 6 6 6 4 2
6 6 6 5 5 5 4 5 4 5 5 5 6 7 7 7 6 7 6 6 6 7 6 6 6 7 7 7 6 6 6 5 5 4 5 4 2 2
5 5 5 5 4 5 5 4 4 4 4 4 5 5 5 6 6 6 6 6 6 7 6 5 5 5 6 6 6 5 5 4 4 3 4 3 2 1
4 4 4 4 4 3 3 3 3 3 4 4 4 4 4 4 4 4 5 5 6 6 5 4 5 4 5 5 6 5 5 4 3 3 2 2 2 1
4 4 3 3 3 1 1 1 2 2 2 2 2 2 3 3 3 4 4 4 4 5 5 4 4 4 4 4 4 4 4 3 3 2 2 1 0 1
3 3 2 2 1 0 0 0 0 1 1 1 1 1 2 2 3 3 3 3 4 4 4 3 3 2 2 2 2 3 2 2 2 1 0 -0 -0 2
2 2 2 1 0 0 0 -0 0 0 0 0 1 1 2 2 2 2 2 3 3 2 4 2 1 1 0 -0 0 1 1 1 1 0 -0 -1 0 1
2 2 1 0 -0 -0 -0 -1 -0 -1 -1 -0 0 0 1 1 1 1 1 1 2 2 3 2 0 -0 0 -1 -2 -1 -0 -0 -0 -1 -1 0 0 -1
1 1 -0 -0 -1 -1 -1 -1 -1 -1 -1 -1 -1 -0 0 0 0 0 0 1 1 1 1 2 1 0 -1 -2 -2 -2 -1 -1 -1 -1 -1 -0 -0 -0
0 -0 -0 -1 -1 -2 -1 -1 -1 -2 -2 -2 -1 -1 -1 -0 -0 -0 -0 -1 -1 -0 1 1 1 0 -1 -1 -2 -2 -1 -2 -2 -2 -1 -1 -1 0
-0 -1 -1 -1 -2 -2 -2 -2 -2 -2 -2 -2 -2 -2 -2 -1 -1 -1 -2 -1 -2 -1 -1 -1 -1 -1 -1 -1 -2 -2 -2 -2 -2 -2 -2 -1 -1 -1
-1 -1 -1 -1 -2 -2 -2 -3 -3 -3 -3 -2 -3 -3 -2 -2 -1 -1 -2 -2 -2 -2 -3 -3 -3 -2 -2 -2 -2 -2 -2 -2 -3 -3 -2 -2 -2 -1
-2 -2 -1 -2 -2 -3 -3 -3 -4 -3 -3 -3 -3 -3 -3 -2 -2 -2 -2 -2 -2 -2 -3 -4 -4 -3 -3 -3 -2 -2 -3 -3 -3 -3 -2 -2 -3 -2
-2 -2 -2 -2 -3 -3 -4 -4 -4 -4 -4 -4 -4 -3 -3 -2 -2 -2 -2 -2 -2 -2 -2 -3 -3 -2 -2 -2 -4 -3 -3 -4 -4 -3 -2 -1 -3 -3
-2 -3 -3 -3 -4 -5 -5 -5 -5 -5 -5 -5 -4 -4 -3 -3 -2 -2 -2 -2 -2 -2 -3 -3 -3 -2 -1 -2 -3 -5 -4 -4 -3 -3 -3 -3 -3 -3
-3 -4 -4 -5 -5 -6 -6 -6 -6 -6 -6 -5 -5 -4 -4 -3 -2 -2 -2 -2 -2 -2 -2 -3 -3 -2 -2 -3 -4 -5 -5 -4 -3 -3 -3 -3 -3 -3
-5 -5 -5 -5 -6 -6 -6 -7 -7 -6 -6 -6 -5 -5 -4 -3 -3 -2 -2 -2 -2 -2 -2 -3 -3 -3 -3 -2 -4 -5 -5 -4 -4 -3 -2 -2 -1 -3
-5 -5 -6 -6 -6 -6 -7 -7 -7 -7 -7 -6 -6 -5 -4 -4 -3 -2 -2 -2 -2 -3 -3 -4 -4 -4 -3 -3 -4 -5 -5 -5 -4 -3 -3 -2 -1 -0
Height
757 761 763 764 765 767 768 769 770 767 763 761 762 760 759 760 759 759 757 754 753 754 755 755 756 756 755 756 757 759 761 761 762 764 764 765 764 763
754 757 758 760 761 763 764 764 764 763 757 757 756 756 756 756 756 754 751 749 748 747 749 749 749 749 750 751 751 752 754 755 755 757 759 760 761 760
752 754 756 756 758 759 759 759 758 758 753 751 751 752 751 750 750 748 746 743 742 741 742 741 740 740 741 742 745 747 748 749 750 752 750 752 756 756
750 752 753 754 756 757 756 756 755 755 753 750 749 748 748 747 746 743 742 739 736 735 733 734 733 734 734 735 735 737 740 742 744 746 746 745 746 747
752 753 754 753 756 757 757 755 754 753 753 751 747 746 743 742 740 737 734 730 728 727 727 726 727 726 725 727 729 731 730 733 737 738 739 740 741 741
755 756 756 756 757 757 756 755 754 752 751 749 746 744 743 740 737 734 729 727 723 723 721 720 720 720 719 721 721 724 728 729 730 733 733 733 735 736
756 757 757 757 757 757 756 754 755 752 751 747 744 741 739 737 734 731 727 723 721 719 716 714 715 713 712 713 714 715 716 722 723 726 726 727 731 729
757 758 757 758 758 757 756 755 754 751 749 746 743 739 736 734 731 727 723 719 714 714 710 706 707 705 703 703 705 708 710 714 716 720 720 719 724 725
758 757 756 757 756 755 753 751 749 748 747 745 740 737 734 732 728 724 721 715 709 709 707 701 702 699 699 698 698 699 702 706 711 711 714 716 717 719
756 756 755 756 754 753 751 749 747 745 742 740 737 734 732 728 725 721 717 711 706 703 701 696 695 692 692 692 694 696 695 701 706 708 708 711 713 714
757 756 755 754 752 751 750 747 744 741 739 736 732 728 724 722 719 715 711 708 699 697 695 695 690 689 688 687 688 691 695 698 702 702 707 708 711 709
756 755 754 752 751 749 746 743 740 736 732 727 722 719 718 715 713 710 708 702 698 692 690 691 687 687 687 684 685 687 689 690 695 698 702 706 706 706
754 751 750 748 747 744 743 740 737 734 729 725 721 718 713 709 707 704 702 699 694 690 687 686 685 685 685 684 683 683 685 688 691 698 701 700 703 707
750 749 747 745 742 740 737 734 732 729 727 724 720 715 711 707 703 698 695 692 689 686 685 683 681 682 682 684 684 685 687 689 693 694 699 697 703 704
749 747 744 741 739 736 733 731 729 726 725 722 718 712 708 702 697 693 690 688 685 682 681 680 680 681 681 682 683 684 686 688 690 693 694 698 702 700
744 741 740 739 738 736 732 730 728 727 724 719 713 709 703 699 694 691 688 686 685 683 682 680 681 681 682 683 684 685 684 688 691 694 698 702 702 702
740 738 736 735 734 732 731 730 727 723 719 714 710 706 702 697 693 689 687 686 686 684 682 681 681 681 681 682 684 685 687 689 693 696 699 702 703 703
738 736 734 732 731 730 728 726 723 718 715 712 707 705 701 697 692 688 686 685 685 683 682 682 682 682 683 685 685 687 689 691 695 695 699 701 703 705
735 733 731 730 729 727 726 723 720 715 712 709 706 702 698 694 690 686 684 683 682 681 681 681 682 682 683 685 689 690 691 692 695 696 702 700 705 707
733 731 730 729 727 725 722 720 717 714 711 707 704 699 695 691 686 684 683 682 680 680 680 681 681 682 683 684 688 693 693 694 695 697 700 706 707 708
730 729 728 726 724 722 720 717 714 712 708 705 701 696 692 688 684 682 680 679 678 678 678 679 680 681 681 683 687 693 695 694 696 701 706 705 707 710
727 727 723 722 722 718 717 713 709 708 705 703 698 693 689 684 681 679 677 676 676 676 676 677 679 680 683 684 689 694 698 701 702 703 705 706 708 710
723 722 720 717 715 714 712 709 705 703 701 698 694 690 685 681 678 676 675 673 674 674 675 677 679 681 683 685 688 693 697 699 702 706 708 708 708 710
Wind_Speed
23 21 19 15 15 19 19 19 11 6 8 21 17 24 22 24 27 27 34 35 34 33 36 37 37 35 31 31 28 30 29 25 21 23 22 18 17 17
23 17 13 13 14 15 17 20 20 18 9 8 12 16 17 22 28 31 31 31 33 34 35 39 39 37 35 33 33 31 29 25 25 22 18 16 17 17
13 11 12 12 10 11 10 14 18 18 11 10 11 18 24 26 28 31 31 32 35 37 35 40 42 40 39 36 34 32 28 27 23 21 18 16 17 18
6 4 3 3 3 7 5 7 10 12 13 13 14 17 19 21 26 30 32 34 35 36 37 39 43 42 40 38 37 32 30 26 23 22 20 19 18 18
7 7 6 7 6 7 8 10 12 13 15 16 18 18 20 21 25 30 32 33 34 35 36 38 40 39 40 41 37 34 31 28 25 24 21 19 19 18
7 7 7 6 7 9 10 11 13 15 16 17 18 18 20 21 23 25 25 26 32 34 36 36 36 38 42 40 36 33 30 27 24 22 20 18 17 16
7 8 7 9 9 11 9 12 14 14 15 17 17 18 18 17 15 19 23 26 26 29 32 34 35 36 36 37 36 35 32 29 25 21 18 16 16 15
7 7 7 7 10 9 11 12 13 15 17 17 18 18 20 20 21 21 22 21 9 17 22 30 31 33 36 37 39 39 34 31 24 20 18 17 14 15
5 6 7 8 10 11 13 15 15 16 17 21 20 19 21 23 25 25 25 24 24 25 18 21 27 31 34 36 38 38 34 28 24 20 17 14 13 15
6 7 8 9 9 14 18 19 19 21 20 22 23 25 27 27 29 28 28 28 27 29 26 11 17 24 26 32 32 30 30 29 22 19 18 14 12 14
5 5 6 6 11 15 17 17 18 19 19 20 22 28 30 29 28 27 22 20 15 18 17 18 15 13 16 24 26 25 22 24 19 16 13 10 12 13
4 5 4 6 13 16 18 18 19 20 25 29 29 28 23 25 25 22 24 20 19 6 15 12 11 9 3 10 20 22 22 20 18 15 13 12 8 9
6 7 8 13 17 18 18 15 17 24 24 23 23 26 27 28 27 23 25 23 20 19 17 12 8 8 4 2 5 15 20 18 19 15 13 8 7 6
9 10 14 17 20 19 16 17 20 20 18 20 20 20 20 23 24 27 27 24 21 23 23 16 8 15 8 4 3 10 13 17 19 12 9 7 7 5
9 13 16 18 19 17 16 18 18 17 18 19 19 19 22 26 28 26 22 19 15 12 11 15 17 13 13 5 4 6 8 8 14 13 8 6 5 0
11 14 13 14 13 15 16 15 16 17 18 18 19 23 23 24 24 23 19 17 11 8 5 8 11 9 9 6 7 11 10 6 15 12 10 8 5 5
16 14 13 12 12 13 14 15 16 18 17 18 20 22 23 22 21 21 15 12 9 5 5 3 4 6 5 5 4 9 10 8 14 17 13 10 7 7
12 13 12 13 14 15 17 18 17 18 18 21 21 20 21 20 20 18 14 10 10 7 4 5 8 7 5 7 7 9 8 11 13 16 12 11 9 8
10 10 11 12 14 15 17 18 20 19 21 19 20 21 20 21 18 14 14 11 10 9 6 8 11 5 2 1 3 6 7 13 16 15 10 5 9 10
9 10 12 13 14 15 16 17 19 21 21 20 20 22 19 19 16 14 12 11 9 6 7 8 12 11 4 4 5 4 6 15 16 15 12 12 14 12
11 11 12 13 15 17 18 18 19 20 21 21 20 21 21 18 17 15 13 11 10 8 7 8 8 9 9 12 9 7 10 10 14 15 16 13 7 6
11 12 12 14 16 17 19 19 19 20 20 19 20 21 22 19 17 16 13 10 10 10 6 10 12 11 9 5 11 12 14 16 14 14 8 4 4 4
12 13 14 16 18 20 18 18 19 20 21 20 21 21 21 19 18 15 15 11 10 9 12 12 11 10 9 13 17 13 19 21 19 18 17 10 6 7
Wind_Direction
232 238 252 248 256 252 251 247 239 263 268 273 275 276 280 278 281 291 289 286 286 281 265 254 245 248 247 244 237 235 238 245 255 264 265 268 273 276
237 231 231 248 258 257 259 265 256 254 268 264 271 280 284 286 293 299 294 289 286 283 270 260 249 248 245 241 239 235 239 245 261 257 256 265 271 274
210 235 251 254 254 248 256 265 261 257 263 284 275 287 288 293 293 294 292 289 287 283 273 262 252 246 242 240 238 239 241 252 251 247 248 257 268 276
79 102 80 359 316 321 315 302 303 301 316 304 305 302 297 299 296 288 287 287 284 282 277 269 257 251 244 239 236 236 244 244 243 245 252 255 264 269
56 44 28 22 6 338 329 319 314 312 306 294 298 296 291 287 287 287 284 283 282 282 277 269 255 244 241 238 238 239 235 237 241 243 249 259 267 271
44 35 33 19 351 340 335 330 324 321 311 303 302 305 306 302 296 292 291 291 289 288 285 277 259 244 239 237 236 237 238 237 238 243 247 260 264 275
38 31 15 3 3 350 347 337 323 317 312 306 300 296 295 298 289 291 287 292 289 289 284 277 265 244 238 236 234 229 232 236 236 237 246 255 263 271
27 13 7 7 349 356 351 341 326 314 306 303 303 300 302 300 300 294 288 286 288 281 274 270 264 247 237 231 229 229 227 224 230 234 239 246 262 274
29 16 9 357 358 354 341 334 327 317 309 305 299 298 304 305 307 306 301 293 276 275 273 265 265 252 247 239 230 227 225 228 229 225 236 248 258 268
17 4 356 351 355 358 341 331 320 313 313 309 306 302 303 303 298 294 295 294 293 279 265 256 256 243 246 243 237 224 218 221 225 224 237 243 253 267
343 338 342 344 343 339 329 317 313 309 309 306 303 301 301 302 296 295 292 295 293 279 263 245 255 246 244 244 239 219 213 223 209 211 223 233 254 266
329 324 328 350 335 332 330 323 317 321 321 318 315 312 308 310 308 296 292 284 288 277 266 217 225 209 268 246 229 223 210 216 210 203 207 226 247 279
326 333 333 332 330 329 327 321 320 320 319 317 317 314 316 318 314 305 303 297 289 276 274 236 226 203 210 272 230 213 206 201 195 198 206 209 234 257
335 332 324 324 328 328 328 330 326 326 322 320 312 306 307 312 313 314 315 309 296 284 276 271 235 210 193 169 206 199 199 200 196 192 210 189 234 265
316 319 321 324 325 326 330 330 329 326 320 314 315 314 319 321 328 330 325 315 310 288 270 237 234 240 223 189 158 179 162 168 183 191 199 192 214 123
320 323 320 320 318 320 323 323 323 318 313 315 319 320 317 321 324 333 320 319 304 290 274 249 257 240 192 181 181 174 174 168 199 195 183 184 158 120
317 315 318 322 323 322 318 316 320 322 323 322 323 318 319 321 320 331 319 307 273 289 292 272 222 214 185 156 117 166 158 145 180 177 169 152 131 115
310 308 312 318 319 320 322 320 322 324 327 324 318 315 316 312 315 317 317 295 284 254 215 207 169 137 115 72 97 149 156 152 174 166 166 145 115 110
294 296 298 304 310 311 316 314 313 320 322 318 313 306 307 310 316 306 296 288 277 259 217 204 188 172 159 104 97 144 157 163 155 141 154 139 134 109
287 295 302 305 307 310 311 312 313 314 314 313 312 310 303 311 313 303 286 274 270 231 200 196 197 199 199 146 138 104 160 150 141 127 118 131 121 114
290 291 294 298 302 304 304 303 306 305 307 308 308 311 307 314 308 297 281 278 268 222 205 195 197 195 170 138 106 102 109 128 143 151 148 123 111 117
277 282 287 293 299 301 301 305 303 305 307 305 307 309 309 312 304 296 283 267 265 229 220 176 171 172 152 137 128 128 118 113 114 127 127 114 149 150
273 278 287 296 298 298 300 302 301 300 301 302 302 307 312 312 309 294 285 263 255 202 169 155 171 163 147 135 137 136 134 120 116 96 68 70 95 121